[[{"header":{"parameterUnit":"m.s-1","parameterCategory":1,"la1":30.2991,"la2":30.254,"lo1":-89.0895,"lo2":-89.0444,"dy":0.0017,"dx":0.0017,"nx":28,"ny":28,"refTime":"2025-07-23T21:00:00:Z","depth":0,"parameterNumber":2,"parameterNumberName":"U-component_of_WINDS"},"data":[0,0,0,0,0,0,0,0,0,0,0,0,0,0,0,0,0,0,0,0,0,0,0,0,0,0,0,0,0,0,0,0,0,0,0,0,0,0,0,0,0,0,0,0,0,0,0,0,0,0,0,0,0,0,0,0,0,0,-1.9395,-1.94,0,-1.9872,-1.9878,-1.9883,-2.0022,-2.0019,-2.0017,-2.0014,-2.0511,-2.0526,-2.0541,0,0,0,0,0,0,0,0,0,0,0,0,0,-1.8614,-1.8628,-1.9395,-1.9401,-1.9407,-1.9871,-1.9878,-1.9885,-2.0022,-2.0019,-2.0016,-2.0013,-2.0506,-2.0524,-2.0543,0,0,0,0,0,0,0,0,0,0,0,0,0,-1.9008,-1.8632,-1.9394,-1.9531,-1.9548,-1.987,-1.9878,-1.9886,-2.0023,-2.0019,-2.0015,-2.0012,-2.05,-2.0522,-2.0545,-2.0767,0,0,-2.0617,-2.0627,0,0,0,0,0,0,0,0,-1.8986,-1.9037,-1.9505,-1.9522,-1.9542,-1.9883,-1.9785,-2.0182,-2.0024,-1.9843,-2.0014,-2.001,-2.0306,-2.0345,-2.0443,-2.079,-2.0812,-2.0619,-2.0633,-2.0643,-2.065,0,0,0,0,0,0,0,-1.8958,-1.9017,-1.9584,-1.9512,-1.9535,-1.9573,-1.9625,-1.9861,-2.009,-1.9858,-1.987,-1.9924,-2.0315,-2.042,-2.0456,-2.0819,-2.0618,-2.0639,-2.0654,-2.0663,-2.1379,-2.1384,0,0,0,0,0,0,-1.8906,-1.8993,-1.9569,-1.9598,-1.9249,-1.959,-1.9648,-1.9778,-2.0088,-2.0132,-1.9927,-1.9928,-2.0382,-2.0428,-2.0474,-2.0757,-2.0643,-2.0665,-2.0679,-2.1374,-2.138,-2.1385,0,0,0,0,0,0,-1.8889,-1.8956,-1.955,-1.9299,-1.9378,-1.9607,-1.9752,-1.9789,-1.9894,-2.014,-2.0182,-1.9991,-2.0381,-2.0441,-2.0694,-2.0776,-2.0676,-2.0697,-2.1368,-2.1376,-2.1383,-2.1321,0,0,0,0,0,0,-1.8866,-1.8949,-1.9032,-1.93,-1.939,-1.9758,-1.9757,-1.9801,-1.9933,-1.994,-2.0211,-2.0252,-2.0382,-2.0658,-2.0717,-2.0806,-2.0715,-2.1362,-2.1371,-2.138,-2.1317,-2.1326,-2.1333,0,0,0,0,0,-1.8837,-1.8997,-1.9036,-1.9105,-1.9499,-1.9762,-1.9814,-1.9958,-1.9939,-2.0027,-2.0186,-2.0244,-2.0757,-2.0683,-2.0751,-2.0847,-2.1357,-2.1369,-2.138,-2.1313,-2.1324,-2.1333,0,0,0,0,0,0,-1.8734,-1.9034,-1.9081,-1.9331,-1.952,-1.9785,-1.9899,-1.9964,-2.0164,-2.0162,-2.0336,-2.0396,-2.0637,-2.0769,-2.068,-2.1082,-2.106,-2.1085,-2.0986,-2.0998,-2.1006,-2.0969,-2.0735,0,0,0,0,0,-1.874,-1.8925,-1.9179,-1.9376,-1.9468,-1.9667,-1.9787,-1.9882,-2.0086,-2.0167,-2.0344,-2.0542,-2.0749,-2.0881,-2.1085,-2.1338,-2.1401,-2.1439,-2.1447,-2.1452,-2.1471,-2.1619,-2.164,-2.1422,-2.1422,-2.1422,0,0,-1.8754,-1.8942,-1.9048,-1.936,-1.9517,-1.9709,-1.9733,-1.9934,-2.008,-2.0199,-2.0448,-2.0585,-2.0819,-2.1073,-2.1195,-2.119,-2.1546,-2.1466,-2.1469,-2.1486,-2.1633,-2.1653,-2.1671,-2.143,-2.1428,-2.1427,0,0,-1.8879,-1.9038,-1.922,-1.9378,-1.9617,-1.9749,-1.9793,-2.0051,-2.0146,-2.0398,-2.0493,-2.0671,-2.1022,-2.1185,-2.1314,-2.1507,-2.1569,-2.1569,-2.161,-2.1752,-2.177,-2.1786,-2.1856,-2.1879,-2.1588,-2.1588,-2.1588,0,-1.8867,-1.9156,-1.9306,-1.9504,-1.964,-1.9756,-1.9945,-2.0092,-2.0385,-2.0478,-2.0469,-2.0915,-2.1081,-2.1377,-2.1424,-2.1524,-2.1583,-2.1538,-2.1754,-2.1772,-2.179,-2.1859,-2.1885,-2.1586,-2.1587,-2.1587,-2.1587,0,-1.9132,-1.9332,-1.9452,-1.973,-1.9881,-2.0072,-2.0255,-2.039,-2.0474,-2.0609,-2.0868,-2.1071,-2.1319,-2.1397,-2.1481,-2.1708,-2.1698,-2.1719,-2.1701,-2.1806,-2.1874,-2.1902,-2.1584,-2.1585,-2.1585,-2.1586,0,0,-1.9199,-1.9562,-1.9603,-1.9733,-2.0007,-2.0167,-2.0367,-2.0608,-2.0722,-2.0922,-2.1096,-2.1394,-2.1417,-2.1563,-2.1668,-2.1792,-2.1936,-2.1801,-2.1809,-2.1819,-2.2201,-2.2182,-2.221,-2.1979,-2.1985,-2.199,-2.2182,0,-1.9358,-1.9716,-1.986,-2.0151,-2.034,-2.0457,-2.0633,-2.0822,-2.0955,-2.1138,-2.1287,-2.1495,-2.1509,-2.1599,-2.1728,-2.189,-2.2014,-2.1879,-2.2146,-2.2154,-2.2082,-2.2245,-2.2225,-2.2396,-2.2209,-2.2214,-2.2217,0,-1.959,-1.9791,-2.0101,-2.0356,-2.0441,-2.0595,-2.083,-2.1003,-2.1223,-2.1312,-2.1477,-2.1576,-2.1795,-2.1764,-2.207,-2.1975,-2.2094,-2.2191,-2.2202,-2.2231,-2.219,-2.2279,-2.2454,-2.2479,-2.2261,-2.2257,-2.2254,0,-1.9609,-1.9958,-2.0189,-2.0297,-2.06,-2.0706,-2.0839,-2.1055,-2.1192,-2.14,-2.1491,-2.1722,-2.1849,-2.2028,-2.2188,-2.215,-2.2481,-2.2462,-2.2563,-2.2559,-2.2625,-2.2619,-2.2821,-2.2703,-2.2703,-2.2702,-2.2702,0,-1.977,-1.9955,-2.0202,-2.0344,-2.0557,-2.0724,-2.0932,-2.1072,-2.1265,-2.144,-2.1557,-2.1719,-2.1921,-2.2112,-2.2239,-2.2476,-2.2532,-2.2612,-2.2644,-2.2601,-2.2591,-2.268,-2.2672,-2.2709,-2.2708,-2.2707,-2.2705,0,-1.9825,-1.9997,-2.0258,-2.0525,-2.0597,-2.0742,-2.0973,-2.1118,-2.1259,-2.1479,-2.1541,-2.1762,-2.1992,-2.2171,-2.2471,-2.2557,-2.2807,-2.2842,-2.2731,-2.2747,-2.2838,-2.2827,-2.3104,-2.315,-2.3001,-2.3002,-2.3003,0,-1.9915,-2.0061,-2.0344,-2.0469,-2.0599,-2.0798,-2.094,-2.1113,-2.1255,-2.152,-2.1634,-2.1873,-2.2072,-2.2435,-2.2625,-2.2857,-2.2898,-2.298,-2.2933,-2.2887,-2.29,-2.2889,-2.2905,-2.2984,-2.2985,-2.2985,-2.2986,0,-2.0058,-2.0138,-2.0335,-2.0564,-2.0729,-2.0919,-2.1111,-2.1207,-2.1416,-2.1572,-2.1807,-2.1962,-2.2269,-2.2505,-2.2758,-2.2899,-2.2979,-2.3,-2.3036,-2.2992,-2.2922,-2.2962,-2.2746,-2.2992,-2.2991,-2.2991,-2.299,-2.299,-2.0135,-2.027,-2.0492,-2.0709,-2.0872,-2.105,-2.12,-2.1361,-2.1559,-2.1821,-2.1913,-2.2156,-2.238,-2.2726,-2.287,-2.3066,-2.307,-2.3121,-2.3134,-2.3144,-2.314,-2.2892,-2.3113,-2.3113,-2.3113,-2.3114,-2.3114,0,-2.0283,-2.0433,-2.0631,-2.0896,-2.1069,-2.1129,-2.1346,-2.1487,-2.1699,-2.19,-2.2094,-2.2368,-2.2599,-2.2809,-2.3052,-2.3169,-2.3212,-2.3227,-2.3219,-2.3251,-2.3122,-2.3067,-2.3188,-2.3188,-2.3188,-2.3188,-2.3188,-2.3188,-2.038,-2.0614,-2.0721,-2.1039,-2.1189,-2.1426,-2.1546,-2.1713,-2.1874,-2.2173,-2.2365,-2.25,-2.2707,-2.2966,-2.3183,-2.324,-2.3324,-2.3329,-2.3394,-2.327,-2.326,-2.325,-2.3199,-2.3346,-2.3346,-2.3507,-2.3509,-2.351]},{"header":{"parameterUnit":"m.s-1","parameterCategory":1,"la1":30.2991,"la2":30.254,"lo1":-89.0895,"lo2":-89.0444,"dy":0.0017,"dx":0.0017,"nx":28,"ny":28,"refTime":"2025-07-23T21:00:00:Z","depth":0,"parameterNumber":3,"parameterNumberName":"V-component_of_WINDS"},"data":[0,0,0,0,0,0,0,0,0,0,0,0,0,0,0,0,0,0,0,0,0,0,0,0,0,0,0,0,0,0,0,0,0,0,0,0,0,0,0,0,0,0,0,0,0,0,0,0,0,0,0,0,0,0,0,0,0,0,-1.2432,-1.2431,0,-1.2302,-1.2301,-1.2299,-1.2199,-1.2198,-1.2197,-1.2196,-1.2059,-1.2057,-1.2054,0,0,0,0,0,0,0,0,0,0,0,0,0,-1.2589,-1.2587,-1.2432,-1.2431,-1.2429,-1.2303,-1.2301,-1.2299,-1.2199,-1.2198,-1.2196,-1.2195,-1.206,-1.2057,-1.2054,0,0,0,0,0,0,0,0,0,0,0,0,0,-1.2496,-1.2586,-1.2433,-1.2364,-1.2357,-1.2303,-1.2301,-1.2298,-1.2199,-1.2197,-1.2196,-1.2195,-1.2061,-1.2057,-1.2053,-1.2057,0,0,-1.2041,-1.2039,0,0,0,0,0,0,0,0,-1.2502,-1.2491,-1.2376,-1.2369,-1.236,-1.2265,-1.2306,-1.2217,-1.2199,-1.2259,-1.2196,-1.2194,-1.2129,-1.2119,-1.2098,-1.205,-1.2044,-1.204,-1.2038,-1.2036,-1.2035,0,0,0,0,0,0,0,-1.2508,-1.2496,-1.2381,-1.2374,-1.2365,-1.2338,-1.2323,-1.2289,-1.2203,-1.2253,-1.2246,-1.2232,-1.2124,-1.2102,-1.2094,-1.2042,-1.204,-1.2037,-1.2034,-1.2033,-1.1989,-1.199,0,0,0,0,0,0,-1.2526,-1.2502,-1.2385,-1.2377,-1.2429,-1.2336,-1.232,-1.2297,-1.2203,-1.2188,-1.2233,-1.2228,-1.211,-1.2099,-1.2089,-1.2086,-1.2036,-1.2032,-1.203,-1.1987,-1.1989,-1.199,0,0,0,0,0,0,-1.253,-1.2516,-1.239,-1.2437,-1.2419,-1.2335,-1.231,-1.2295,-1.2273,-1.2188,-1.2172,-1.2227,-1.2108,-1.2094,-1.2065,-1.208,-1.203,-1.2027,-1.1986,-1.1988,-1.199,-1.2081,0,0,0,0,0,0,-1.2535,-1.2518,-1.252,-1.2438,-1.2417,-1.2371,-1.2311,-1.2294,-1.2266,-1.2258,-1.2178,-1.2163,-1.2106,-1.2072,-1.2061,-1.2073,-1.2023,-1.1984,-1.1987,-1.1989,-1.2077,-1.2086,-1.2094,0,0,0,0,0,-1.2541,-1.2551,-1.2521,-1.2508,-1.2418,-1.2372,-1.236,-1.2295,-1.2268,-1.2268,-1.2213,-1.2165,-1.2079,-1.207,-1.2057,-1.2068,-1.1983,-1.1986,-1.1989,-1.2073,-1.2084,-1.2094,0,0,0,0,0,0,-1.2637,-1.2539,-1.2505,-1.2489,-1.244,-1.2355,-1.2354,-1.2309,-1.2266,-1.226,-1.218,-1.2162,-1.2142,-1.2101,-1.2092,-1.2065,-1.2025,-1.2025,-1.2093,-1.2103,-1.2112,-1.2123,-1.202,0,0,0,0,0,-1.2657,-1.2629,-1.2544,-1.2538,-1.2515,-1.2439,-1.2417,-1.2371,-1.2316,-1.2294,-1.2237,-1.2185,-1.2145,-1.2122,-1.2081,-1.2069,-1.205,-1.207,-1.2079,-1.2086,-1.2089,-1.2078,-1.2086,-1.2,-1.2,-1.2,0,0,-1.2697,-1.264,-1.2627,-1.2556,-1.2513,-1.2485,-1.2422,-1.2395,-1.2373,-1.229,-1.2259,-1.2215,-1.2151,-1.213,-1.2118,-1.2096,-1.2107,-1.209,-1.2097,-1.2095,-1.2082,-1.209,-1.2098,-1.2002,-1.2001,-1.2001,0,0,-1.2756,-1.271,-1.27,-1.2657,-1.2592,-1.254,-1.2538,-1.2459,-1.2427,-1.2395,-1.2331,-1.2302,-1.2237,-1.2194,-1.2163,-1.2202,-1.2156,-1.2191,-1.2238,-1.2229,-1.2236,-1.2241,-1.2256,-1.2262,-1.2193,-1.2193,-1.2193,0,-1.2814,-1.2771,-1.27,-1.2677,-1.2647,-1.257,-1.2558,-1.2519,-1.2444,-1.2424,-1.24,-1.2315,-1.2266,-1.2234,-1.2244,-1.2221,-1.2215,-1.2201,-1.2241,-1.2246,-1.225,-1.2263,-1.2268,-1.2198,-1.2197,-1.2197,-1.2196,0,-1.2846,-1.2816,-1.2815,-1.2745,-1.2714,-1.2697,-1.2623,-1.26,-1.2555,-1.2506,-1.2473,-1.2411,-1.2356,-1.2344,-1.2301,-1.2305,-1.2293,-1.2256,-1.2214,-1.2264,-1.2275,-1.2279,-1.2204,-1.2203,-1.2201,-1.22,0,0,-1.2966,-1.2855,-1.2856,-1.2823,-1.2743,-1.2718,-1.2695,-1.2642,-1.2624,-1.2573,-1.2552,-1.2497,-1.2461,-1.2427,-1.2376,-1.2368,-1.2403,-1.2331,-1.2328,-1.2348,-1.2404,-1.2435,-1.2442,-1.2371,-1.2371,-1.2372,-1.241,0,-1.3014,-1.2972,-1.2907,-1.2886,-1.2857,-1.2781,-1.2761,-1.2709,-1.2661,-1.2628,-1.2574,-1.2537,-1.2492,-1.247,-1.2459,-1.2402,-1.2414,-1.2398,-1.235,-1.235,-1.2372,-1.2447,-1.248,-1.2519,-1.2414,-1.2414,-1.2415,0,-1.3066,-1.302,-1.2997,-1.2918,-1.2903,-1.2887,-1.2832,-1.2801,-1.2739,-1.2705,-1.2665,-1.261,-1.258,-1.2541,-1.2499,-1.2489,-1.2465,-1.2434,-1.2433,-1.2429,-1.2388,-1.2446,-1.253,-1.2537,-1.2421,-1.242,-1.242,0,-1.3158,-1.309,-1.3066,-1.304,-1.2947,-1.2937,-1.2897,-1.2834,-1.2806,-1.2756,-1.2737,-1.2684,-1.2656,-1.2616,-1.2547,-1.2525,-1.2512,-1.2467,-1.2483,-1.2485,-1.2486,-1.2488,-1.257,-1.2467,-1.2467,-1.2467,-1.2467,0,-1.322,-1.3209,-1.3106,-1.3093,-1.3077,-1.3,-1.2986,-1.2939,-1.2882,-1.2857,-1.2786,-1.2763,-1.2673,-1.2639,-1.2584,-1.2557,-1.2545,-1.2515,-1.2502,-1.2523,-1.2527,-1.2508,-1.2505,-1.2468,-1.2468,-1.2468,-1.2468,0,-1.3323,-1.3253,-1.3223,-1.3136,-1.3114,-1.3106,-1.3031,-1.3014,-1.296,-1.2928,-1.2916,-1.2832,-1.2788,-1.2715,-1.2649,-1.2612,-1.2596,-1.2571,-1.2618,-1.261,-1.263,-1.263,-1.2705,-1.2711,-1.2603,-1.2604,-1.2605,0,-1.3369,-1.3358,-1.327,-1.3248,-1.3211,-1.3177,-1.3147,-1.3068,-1.304,-1.2967,-1.2959,-1.2909,-1.2865,-1.2798,-1.273,-1.2678,-1.2653,-1.2682,-1.2645,-1.2667,-1.2655,-1.2658,-1.2656,-1.2693,-1.2694,-1.2695,-1.2696,0,-1.3458,-1.3423,-1.3384,-1.3332,-1.3299,-1.3254,-1.3205,-1.319,-1.31,-1.3072,-1.3026,-1.2992,-1.2924,-1.2876,-1.2814,-1.2771,-1.2719,-1.2708,-1.2709,-1.2733,-1.2761,-1.2747,-1.2644,-1.2708,-1.2706,-1.2706,-1.2705,-1.2705,-1.3534,-1.3521,-1.3457,-1.3414,-1.3369,-1.3325,-1.3304,-1.3247,-1.3208,-1.3148,-1.3102,-1.306,-1.2995,-1.2907,-1.2866,-1.283,-1.2807,-1.2809,-1.2809,-1.2811,-1.282,-1.2764,-1.2819,-1.2818,-1.2818,-1.2817,-1.2817,0,-1.3621,-1.3575,-1.3537,-1.3471,-1.3437,-1.339,-1.3332,-1.3307,-1.3271,-1.3215,-1.3173,-1.3119,-1.3071,-1.2998,-1.2943,-1.2928,-1.2903,-1.2917,-1.2919,-1.2909,-1.2844,-1.2849,-1.2938,-1.2938,-1.2938,-1.2938,-1.2938,-1.2938,-1.3663,-1.3638,-1.3596,-1.3547,-1.3499,-1.3458,-1.3429,-1.3387,-1.3342,-1.3286,-1.3245,-1.3198,-1.3134,-1.3074,-1.3027,-1.3006,-1.299,-1.3012,-1.2985,-1.2925,-1.2914,-1.2904,-1.2908,-1.3009,-1.3009,-1.3053,-1.3054,-1.3054]}]]